Morrisville, VT

7:49 PM EST on January 17, 2018 (GMT -0500)
Morrisville Stowe State

Weather History for KMVL - November, 2011

Change the Weather History Date:

Thursday, November 3, 2011

  Actual Average Record
Temperature  
Mean Temperature 45 °F 40 °F  
Max Temperature 59 °F 49 °F 64 °F (1999)
Min Temperature 30 °F 30 °F 8 °F (2002)
Degree Days  
Heating Degree Days 20 25  
Month to date heating degree days 65 75  
Since 1 July heating degree days 735 1006  
Cooling Degree Days 0 0  
Month to date cooling degree days 0 0  
Year to date cooling degree days 337 265  
Moisture  
Dew Point 36 °F    
Average Humidity 70    
Maximum Humidity 96    
Minimum Humidity 44    
Precipitation  
Precipitation T in 0.10 in 0.30 in (2016)
Month to date precipitation T 0.29  
Year to date precipitation 33.07 30.53  
Sea Level Pressure  
Sea Level Pressure 30.00 in    
Wind  
Wind Speed 4 mph (NNW)    
Max Wind Speed 17 mph    
Max Gust Speed 24 mph    
Visibility 10 miles    
Events      
T = Trace of Precipitation, MM = Missing Value Source: NWS Daily Summary

Daily Weather History Graph

Daily Weather History Graph

Search for Another Location

Airport or City:

Trip Planner

Search our weather history database for the weather conditions in past years. The results will help you decide how hot, cold, wet, or windy it might be!

Date:

Astronomy

Nov. 03, 2011 Rise Set
Actual Time 7:30 AM EDT 5:37 PM EDT
Civil Twilight 6:59 AM EDT 6:07 PM EDT
Nautical Twilight 6:25 AM EDT 6:42 PM EDT
Astronomical Twilight 5:51 AM EDT 7:15 PM EDT
Moon 2:13 PM EDT (11/3) 12:23 AM EDT (11/3)
Length of Visible Light 11h 07m
Length of Day
10h 06m
First Quarter, 60% of the Moon is Illuminated
Nov 3
First Quarter
Nov 10
Full
Nov 18
Last Quarter
Nov 25
New
Dec 2
First Quarter

Hourly Weather History & Observations

Time (EDT) Temp. Windchill Dew Point Humidity Pressure Visibility Wind Dir Wind Speed Gust Speed Precip Events Conditions
12:54 AM 35.1 °F - 30.9 °F 85% 30.16 in 10.0 mi Calm Calm - N/A   Clear
1:54 AM 33.1 °F - 30.0 °F 89% 30.13 in 10.0 mi Calm Calm - N/A   Clear
2:54 AM 34.0 °F - 30.0 °F 85% 30.12 in 10.0 mi Calm Calm - N/A   Clear
3:54 AM 32.0 °F - 30.0 °F 92% 30.12 in 10.0 mi Calm Calm - N/A   Clear
4:54 AM 33.1 °F - 30.9 °F 92% 30.10 in 10.0 mi Calm Calm - N/A   Clear
5:54 AM 33.1 °F - 30.0 °F 89% 30.08 in 10.0 mi Calm Calm - N/A   Clear
6:54 AM 32.0 °F 28.7 °F 30.0 °F 92% 30.06 in 10.0 mi SSW 3.5 mph - N/A   Clear
7:54 AM 30.9 °F - 28.9 °F 92% 30.06 in 10.0 mi Calm Calm - N/A   Clear
8:54 AM 34.0 °F - 32.0 °F 92% 30.05 in 10.0 mi Calm Calm - N/A   Clear
9:54 AM 41.0 °F - 35.1 °F 79% 30.04 in 10.0 mi Calm Calm - N/A   Clear
11:54 AM 48.9 °F - 37.9 °F 66% 29.98 in 10.0 mi South 5.8 mph - N/A   Clear
12:54 PM 55.9 °F - 37.9 °F 51% 29.94 in 10.0 mi Variable 3.5 mph - N/A   Clear
1:54 PM 59.0 °F - 37.0 °F 44% 29.91 in 10.0 mi Variable 3.5 mph - N/A   Clear
2:54 PM 57.0 °F - 39.0 °F 51% 29.90 in 10.0 mi North 5.8 mph - N/A   Clear
3:54 PM 55.9 °F - 39.0 °F 53% 29.90 in 10.0 mi Calm Calm - N/A   Partly Cloudy
4:54 PM 54.0 °F - 39.0 °F 57% 29.91 in 10.0 mi Calm Calm - N/A   Mostly Cloudy
5:54 PM 52.0 °F - 39.0 °F 61% 29.93 in 10.0 mi NNW 10.4 mph 17.3 mph N/A   Mostly Cloudy
6:51 PM 48.2 °F - 41.0 °F 76% 29.94 in 10.0 mi NNW 16.1 mph 24.2 mph N/A   Overcast
6:54 PM 48.9 °F - 41.0 °F 74% 29.96 in 10.0 mi NNW 12.7 mph 24.2 mph N/A   Overcast
7:38 PM 46.4 °F 42.9 °F 42.8 °F 87% 29.95 in 10.0 mi NNW 6.9 mph - 0.00 in   Overcast
7:54 PM 46.0 °F 43.1 °F 42.1 °F 86% 29.97 in 10.0 mi Variable 5.8 mph - 0.00 in   Overcast
8:54 PM 44.1 °F 38.1 °F 39.9 °F 85% 29.97 in 10.0 mi NNW 11.5 mph 17.3 mph N/A   Overcast
9:49 PM 42.8 °F 41.1 °F 39.2 °F 87% 29.97 in 10.0 mi Variable 3.5 mph - 0.00 in   Overcast
9:54 PM 43.0 °F 38.2 °F 37.9 °F 82% 29.99 in 10.0 mi NNW 8.1 mph - 0.00 in   Overcast
10:32 PM 42.8 °F 38.0 °F 37.4 °F 81% 29.97 in 10.0 mi NNW 8.1 mph 20.7 mph 0.00 in   Overcast
10:54 PM 41.0 °F 37.1 °F 37.0 °F 86% 30.00 in 10.0 mi North 5.8 mph - 0.00 in   Overcast
11:49 PM 42.8 °F 40.1 °F 37.4 °F 81% 29.98 in 10.0 mi NNW 4.6 mph - 0.00 in   Overcast
11:54 PM 42.1 °F 40.2 °F 37.9 °F 85% 30.00 in 10.0 mi Variable 3.5 mph - 0.00 in   Overcast